[[{"header":{"parameterUnit":"m.s-1","parameterCategory":1,"la1":30.2991,"la2":30.254,"lo1":-89.0895,"lo2":-89.0444,"dy":0.0017,"dx":0.0017,"nx":28,"ny":28,"refTime":"2023-05-28T21:00:00:Z","depth":0,"parameterNumber":2,"parameterNumberName":"U-component_of_WINDS"},"data":[0,0,0,0,0,0,0,0,0,0,0,0,0,0,0,0,0,0,0,0,0,0,0,0,0,0,0,0,0,0,0,0,0,0,0,0,0,0,0,0,0,0,0,0,0,0,0,0,0,0,0,0,0,0,0,0,0,0,-1.4299,-1.43,0,-1.4378,-1.4379,-1.438,-1.4443,-1.4444,-1.4445,-1.4445,-1.452,-1.4522,-1.4523,0,0,0,0,0,0,0,0,0,0,0,0,0,-1.4198,-1.42,-1.4299,-1.43,-1.4301,-1.4378,-1.4379,-1.438,-1.4443,-1.4444,-1.4445,-1.4446,-1.452,-1.4522,-1.4523,0,0,0,0,0,0,0,0,0,0,0,0,0,-1.4256,-1.42,-1.4299,-1.4342,-1.4347,-1.4378,-1.4379,-1.4381,-1.4443,-1.4444,-1.4445,-1.4446,-1.4519,-1.4521,-1.4523,-1.4517,0,0,-1.453,-1.4531,0,0,0,0,0,0,0,0,-1.4252,-1.4259,-1.4335,-1.4339,-1.4344,-1.4402,-1.4371,-1.4426,-1.4443,-1.4406,-1.4445,-1.4446,-1.448,-1.4485,-1.4498,-1.452,-1.4523,-1.453,-1.4531,-1.4532,-1.4533,0,0,0,0,0,0,0,-1.4248,-1.4256,-1.433,-1.4336,-1.4342,-1.4356,-1.4365,-1.4382,-1.4436,-1.4409,-1.4414,-1.4423,-1.4483,-1.4496,-1.45,-1.4525,-1.453,-1.4532,-1.4533,-1.4534,-1.4545,-1.4544,0,0,0,0,0,0,-1.4238,-1.4253,-1.4328,-1.4333,-1.43,-1.4357,-1.4367,-1.4382,-1.4436,-1.4446,-1.4422,-1.4426,-1.4492,-1.4497,-1.4503,-1.4498,-1.4532,-1.4534,-1.4535,-1.4546,-1.4545,-1.4544,0,0,0,0,0,0,-1.4236,-1.4244,-1.4325,-1.4294,-1.4305,-1.4358,-1.4374,-1.4383,-1.4396,-1.4446,-1.4456,-1.4426,-1.4493,-1.45,-1.4513,-1.4501,-1.4535,-1.4537,-1.4547,-1.4546,-1.4545,-1.4487,0,0,0,0,0,0,-1.4233,-1.4243,-1.4242,-1.4294,-1.4307,-1.4334,-1.4373,-1.4384,-1.4401,-1.4406,-1.4452,-1.446,-1.4494,-1.451,-1.4515,-1.4505,-1.4539,-1.4549,-1.4547,-1.4545,-1.449,-1.4484,-1.4479,0,0,0,0,0,-1.4229,-1.4221,-1.4242,-1.425,-1.4307,-1.4334,-1.4341,-1.4381,-1.4399,-1.4398,-1.443,-1.4459,-1.4502,-1.4511,-1.4517,-1.4507,-1.4549,-1.4547,-1.4545,-1.4493,-1.4485,-1.4479,0,0,0,0,0,0,-1.4164,-1.4229,-1.4252,-1.4261,-1.4292,-1.4344,-1.4343,-1.4372,-1.4396,-1.44,-1.4448,-1.4458,-1.4465,-1.4488,-1.4496,-1.4503,-1.453,-1.4529,-1.4488,-1.4481,-1.4475,-1.4468,-1.454,0,0,0,0,0,-1.4152,-1.417,-1.4225,-1.4228,-1.4242,-1.429,-1.4304,-1.4333,-1.4365,-1.4378,-1.4411,-1.444,-1.446,-1.4472,-1.4494,-1.4495,-1.4505,-1.4492,-1.4486,-1.4481,-1.4478,-1.448,-1.4474,-1.4537,-1.4537,-1.4537,0,0,-1.4124,-1.4162,-1.417,-1.4216,-1.4243,-1.4259,-1.43,-1.4316,-1.4328,-1.438,-1.4394,-1.442,-1.4455,-1.4463,-1.4467,-1.4482,-1.4464,-1.4478,-1.4474,-1.4474,-1.4477,-1.4471,-1.4466,-1.4536,-1.4536,-1.4536,0,0,-1.4083,-1.4114,-1.412,-1.4147,-1.4189,-1.4221,-1.4222,-1.4271,-1.4291,-1.4307,-1.4346,-1.4361,-1.4395,-1.4419,-1.4435,-1.4406,-1.4432,-1.4412,-1.4379,-1.438,-1.4375,-1.4371,-1.4358,-1.4354,-1.441,-1.441,-1.4409,0,-1.4043,-1.4071,-1.4118,-1.4132,-1.415,-1.4201,-1.4206,-1.423,-1.4275,-1.4286,-1.4302,-1.4347,-1.4375,-1.4387,-1.4381,-1.4393,-1.4395,-1.4405,-1.4373,-1.4369,-1.4366,-1.4354,-1.4349,-1.4407,-1.4407,-1.4407,-1.4407,0,-1.4019,-1.4038,-1.4037,-1.4082,-1.4101,-1.4109,-1.4157,-1.417,-1.4199,-1.4229,-1.4244,-1.428,-1.431,-1.4316,-1.4342,-1.4333,-1.434,-1.4364,-1.4391,-1.4356,-1.4346,-1.4342,-1.4402,-1.4403,-1.4404,-1.4405,0,0,-1.3934,-1.4008,-1.4007,-1.4028,-1.4079,-1.4093,-1.4105,-1.4136,-1.4146,-1.4176,-1.4186,-1.4215,-1.4238,-1.4257,-1.4287,-1.4289,-1.4261,-1.4313,-1.4314,-1.4299,-1.425,-1.423,-1.4224,-1.4281,-1.428,-1.428,-1.4247,0,-1.3899,-1.3923,-1.3968,-1.3978,-1.3995,-1.4045,-1.4055,-1.4086,-1.4116,-1.4134,-1.4166,-1.4185,-1.4215,-1.4227,-1.4231,-1.4263,-1.4251,-1.4267,-1.4287,-1.4287,-1.4273,-1.4219,-1.4197,-1.4163,-1.4243,-1.4243,-1.4242,0,-1.3859,-1.3889,-1.3901,-1.3952,-1.396,-1.3969,-1.4001,-1.4019,-1.4055,-1.4077,-1.4099,-1.4133,-1.4147,-1.4174,-1.4193,-1.4202,-1.4214,-1.4232,-1.4231,-1.4232,-1.426,-1.4215,-1.4154,-1.4147,-1.4237,-1.4237,-1.4238,0,-1.3793,-1.3836,-1.3849,-1.3866,-1.3926,-1.3931,-1.3956,-1.3994,-1.401,-1.4039,-1.4049,-1.4078,-1.4093,-1.4114,-1.4155,-1.4172,-1.4168,-1.4199,-1.4184,-1.4183,-1.4178,-1.4177,-1.4114,-1.4191,-1.4191,-1.4191,-1.4191,0,-1.3746,-1.375,-1.382,-1.3827,-1.3834,-1.3886,-1.3891,-1.392,-1.3954,-1.3967,-1.4013,-1.4024,-1.4079,-1.4096,-1.4128,-1.4138,-1.4145,-1.4161,-1.4168,-1.4155,-1.4152,-1.416,-1.4162,-1.419,-1.419,-1.419,-1.4191,0,-1.3671,-1.3719,-1.3735,-1.3793,-1.3807,-1.3809,-1.3857,-1.3866,-1.39,-1.3916,-1.3922,-1.3974,-1.3997,-1.4041,-1.4075,-1.4097,-1.4098,-1.4114,-1.4086,-1.409,-1.4071,-1.4071,-1.4009,-1.4003,-1.4086,-1.4085,-1.4084,0,-1.3636,-1.3641,-1.37,-1.3713,-1.3737,-1.3757,-1.3775,-1.3827,-1.3843,-1.3887,-1.3889,-1.3916,-1.394,-1.3974,-1.4013,-1.404,-1.4055,-1.4032,-1.4059,-1.4045,-1.4051,-1.4049,-1.4049,-1.4024,-1.4023,-1.4022,-1.4021,0,-1.3567,-1.3592,-1.3616,-1.3649,-1.367,-1.3698,-1.3728,-1.3736,-1.3795,-1.381,-1.3835,-1.3854,-1.3891,-1.3916,-1.3949,-1.3974,-1.4006,-1.4013,-1.4011,-1.3994,-1.3976,-1.3983,-1.4065,-1.4013,-1.4014,-1.4014,-1.4015,-1.4015,-1.3509,-1.3516,-1.3559,-1.3585,-1.3614,-1.3642,-1.3653,-1.369,-1.3712,-1.3747,-1.3777,-1.3799,-1.3837,-1.3885,-1.3908,-1.3925,-1.394,-1.3937,-1.3936,-1.3933,-1.3926,-1.3977,-1.3932,-1.3932,-1.3932,-1.3932,-1.3933,0,-1.344,-1.3472,-1.3496,-1.3538,-1.3558,-1.3592,-1.3628,-1.3642,-1.3661,-1.3695,-1.3719,-1.3747,-1.3773,-1.3817,-1.3846,-1.3851,-1.3866,-1.3856,-1.3854,-1.3859,-1.3912,-1.391,-1.3843,-1.3843,-1.3843,-1.3843,-1.3843,-1.3843,-1.3407,-1.342,-1.3449,-1.3477,-1.3508,-1.3532,-1.3549,-1.3575,-1.3602,-1.3633,-1.3655,-1.3685,-1.3722,-1.3755,-1.378,-1.3792,-1.3799,-1.3783,-1.3799,-1.3847,-1.3855,-1.3863,-1.3861,-1.3785,-1.3785,-1.3745,-1.3744,-1.3744]},{"header":{"parameterUnit":"m.s-1","parameterCategory":1,"la1":30.2991,"la2":30.254,"lo1":-89.0895,"lo2":-89.0444,"dy":0.0017,"dx":0.0017,"nx":28,"ny":28,"refTime":"2023-05-28T21:00:00:Z","depth":0,"parameterNumber":3,"parameterNumberName":"V-component_of_WINDS"},"data":[0,0,0,0,0,0,0,0,0,0,0,0,0,0,0,0,0,0,0,0,0,0,0,0,0,0,0,0,0,0,0,0,0,0,0,0,0,0,0,0,0,0,0,0,0,0,0,0,0,0,0,0,0,0,0,0,0,0,-1.5943,-1.5943,0,-1.5956,-1.5957,-1.5957,-1.5931,-1.593,-1.593,-1.5929,-1.5941,-1.5942,-1.5944,0,0,0,0,0,0,0,0,0,0,0,0,0,-1.5895,-1.5896,-1.5943,-1.5943,-1.5943,-1.5956,-1.5957,-1.5957,-1.5931,-1.593,-1.5929,-1.5928,-1.5941,-1.5942,-1.5944,0,0,0,0,0,0,0,0,0,0,0,0,0,-1.5912,-1.5896,-1.5943,-1.5932,-1.5932,-1.5956,-1.5957,-1.5957,-1.5932,-1.593,-1.5929,-1.5928,-1.5941,-1.5942,-1.5944,-1.5979,0,0,-1.5949,-1.595,0,0,0,0,0,0,0,0,-1.5911,-1.5914,-1.5934,-1.5933,-1.5932,-1.5941,-1.5944,-1.5964,-1.5932,-1.5932,-1.5929,-1.5927,-1.5942,-1.5944,-1.5949,-1.598,-1.598,-1.5949,-1.595,-1.5951,-1.5951,0,0,0,0,0,0,0,-1.591,-1.5914,-1.5948,-1.5934,-1.5933,-1.5926,-1.5928,-1.5948,-1.5944,-1.5932,-1.593,-1.5932,-1.5942,-1.5947,-1.5949,-1.5981,-1.5949,-1.5951,-1.5952,-1.5952,-1.6041,-1.6042,0,0,0,0,0,0,-1.5911,-1.5913,-1.5948,-1.5949,-1.5919,-1.5928,-1.593,-1.5939,-1.5943,-1.5943,-1.5933,-1.593,-1.5945,-1.5947,-1.5949,-1.5991,-1.5951,-1.5952,-1.5953,-1.6039,-1.6041,-1.6042,0,0,0,0,0,0,-1.591,-1.5914,-1.5947,-1.593,-1.5934,-1.5931,-1.5942,-1.594,-1.5946,-1.5944,-1.5943,-1.594,-1.5944,-1.5947,-1.5972,-1.5991,-1.5953,-1.5955,-1.6038,-1.604,-1.6042,-1.6074,0,0,0,0,0,0,-1.5908,-1.5914,-1.5928,-1.5931,-1.5935,-1.597,-1.5943,-1.5942,-1.5949,-1.5946,-1.595,-1.595,-1.5943,-1.597,-1.5974,-1.5992,-1.5956,-1.6036,-1.6039,-1.6041,-1.6071,-1.6077,-1.6082,0,0,0,0,0,-1.5907,-1.5936,-1.5928,-1.5933,-1.5952,-1.5972,-1.5974,-1.5966,-1.5951,-1.5964,-1.5963,-1.595,-1.5988,-1.5972,-1.5977,-1.5996,-1.6035,-1.6038,-1.6041,-1.6069,-1.6076,-1.6082,0,0,0,0,0,0,-1.5935,-1.5936,-1.5928,-1.5959,-1.5966,-1.5967,-1.5984,-1.5974,-1.5984,-1.5981,-1.597,-1.5972,-1.5999,-1.6,-1.5982,-1.603,-1.6009,-1.6013,-1.6029,-1.6035,-1.604,-1.604,-1.5957,0,0,0,0,0,-1.5945,-1.5961,-1.5961,-1.5989,-1.5992,-1.5988,-1.5996,-1.5989,-1.5995,-1.5998,-1.5998,-1.6004,-1.6017,-1.6026,-1.6038,-1.6071,-1.6072,-1.6087,-1.6092,-1.6096,-1.61,-1.6117,-1.6124,-1.6052,-1.6052,-1.6052,0,0,-1.5966,-1.5968,-1.5979,-1.5994,-1.5998,-1.6015,-1.599,-1.6008,-1.602,-1.6,-1.6024,-1.6025,-1.603,-1.6059,-1.6072,-1.6061,-1.612,-1.61,-1.6104,-1.6105,-1.6121,-1.6128,-1.6134,-1.6054,-1.6054,-1.6054,0,0,-1.6012,-1.6015,-1.6039,-1.6043,-1.605,-1.6046,-1.6052,-1.6055,-1.6055,-1.6079,-1.6064,-1.6077,-1.6101,-1.6105,-1.6111,-1.6158,-1.6146,-1.6162,-1.6189,-1.6206,-1.6212,-1.6217,-1.6233,-1.6239,-1.6166,-1.6166,-1.6166,0,-1.6036,-1.6061,-1.6052,-1.6071,-1.6078,-1.6061,-1.6084,-1.6089,-1.6099,-1.6104,-1.6091,-1.612,-1.6123,-1.6152,-1.6164,-1.6169,-1.6175,-1.6162,-1.6212,-1.6217,-1.6221,-1.6237,-1.6243,-1.6168,-1.6167,-1.6167,-1.6167,0,-1.6091,-1.6108,-1.6126,-1.6136,-1.6145,-1.6166,-1.616,-1.617,-1.6162,-1.616,-1.6184,-1.6187,-1.6199,-1.6206,-1.6198,-1.6234,-1.6227,-1.6214,-1.6192,-1.623,-1.6245,-1.6251,-1.617,-1.617,-1.6169,-1.6169,0,0,-1.6155,-1.616,-1.6167,-1.6171,-1.6177,-1.619,-1.621,-1.6222,-1.623,-1.6238,-1.6254,-1.6274,-1.6261,-1.6267,-1.626,-1.6275,-1.6312,-1.6259,-1.6259,-1.6269,-1.6351,-1.6362,-1.6369,-1.6304,-1.6305,-1.6306,-1.6351,0,-1.6201,-1.6236,-1.6228,-1.6262,-1.6278,-1.6261,-1.6278,-1.6284,-1.6282,-1.6294,-1.6292,-1.6307,-1.6289,-1.6292,-1.6306,-1.6305,-1.6328,-1.6301,-1.6319,-1.6319,-1.6318,-1.6376,-1.6387,-1.643,-1.6356,-1.6357,-1.6358,0,-1.6258,-1.6268,-1.6304,-1.6307,-1.6313,-1.6329,-1.6339,-1.6351,-1.6356,-1.6354,-1.6361,-1.6351,-1.637,-1.6348,-1.6374,-1.6356,-1.6363,-1.6363,-1.6364,-1.6366,-1.6341,-1.6379,-1.6443,-1.6449,-1.6367,-1.6366,-1.6366,0,-1.6302,-1.6324,-1.6348,-1.6352,-1.6356,-1.6367,-1.637,-1.6373,-1.6381,-1.639,-1.6395,-1.6406,-1.6412,-1.642,-1.6413,-1.6398,-1.644,-1.6418,-1.6439,-1.6439,-1.6449,-1.6448,-1.6514,-1.6453,-1.6453,-1.6453,-1.6453,0,-1.6353,-1.6376,-1.6367,-1.6382,-1.6407,-1.6398,-1.6422,-1.6422,-1.6426,-1.644,-1.6426,-1.644,-1.643,-1.6442,-1.6437,-1.6459,-1.6462,-1.6461,-1.6459,-1.6462,-1.6462,-1.6466,-1.6463,-1.6454,-1.6454,-1.6454,-1.6453,0,-1.6406,-1.6401,-1.6427,-1.6428,-1.6429,-1.6447,-1.6448,-1.6462,-1.6459,-1.6477,-1.6481,-1.6476,-1.649,-1.6484,-1.6499,-1.6495,-1.6524,-1.6519,-1.6523,-1.6521,-1.6543,-1.6541,-1.6614,-1.6623,-1.6556,-1.6556,-1.6557,0,-1.6439,-1.6456,-1.646,-1.6468,-1.6471,-1.6486,-1.6493,-1.6485,-1.6493,-1.65,-1.6513,-1.6526,-1.6536,-1.6559,-1.6557,-1.6568,-1.6562,-1.6587,-1.6564,-1.6566,-1.6563,-1.6562,-1.6563,-1.6592,-1.6593,-1.6593,-1.6594,0,-1.6499,-1.6496,-1.6507,-1.6519,-1.6528,-1.6536,-1.6543,-1.6551,-1.6543,-1.6553,-1.6567,-1.6575,-1.659,-1.6603,-1.6612,-1.6614,-1.6603,-1.6601,-1.6606,-1.661,-1.6612,-1.6611,-1.6535,-1.6599,-1.6599,-1.6598,-1.6598,-1.6598,-1.6543,-1.6557,-1.6562,-1.6575,-1.6579,-1.6586,-1.6599,-1.6598,-1.661,-1.6621,-1.6615,-1.6632,-1.6636,-1.6648,-1.6651,-1.6664,-1.6654,-1.6662,-1.6664,-1.6666,-1.6669,-1.6609,-1.6665,-1.6665,-1.6665,-1.6665,-1.6665,0,-1.6602,-1.6604,-1.6616,-1.6626,-1.6637,-1.6625,-1.6632,-1.6642,-1.6657,-1.6662,-1.6672,-1.6688,-1.67,-1.6699,-1.671,-1.672,-1.6715,-1.6724,-1.6723,-1.6723,-1.6677,-1.6671,-1.6728,-1.6728,-1.6728,-1.6728,-1.6728,-1.6728,-1.6633,-1.6657,-1.6654,-1.6679,-1.6681,-1.6697,-1.6702,-1.6708,-1.6712,-1.6731,-1.6741,-1.674,-1.6743,-1.6754,-1.6765,-1.6764,-1.6769,-1.6779,-1.6776,-1.6733,-1.6727,-1.6721,-1.6715,-1.678,-1.678,-1.6822,-1.6822,-1.6822]}]]